{"data":{"norad_id":56788,"epoch":"2026-05-25T03:15:24.277824Z","epoch_age_seconds":59478,"freshness":"FRESH","line1":"1 56788U 23078X   26145.13569766 -.00005107  00000+0 -42039-3 0  9990","line2":"2 56788  69.9979 131.7398 0003558 267.9932  92.0820 14.98337268164627","mean_motion":14.98337268,"eccentricity":0.0003558,"inclination_deg":69.9979,"raan_deg":131.7398,"arg_perigee_deg":267.9932,"mean_anomaly_deg":92.082,"bstar":-0.00042039,"rev_number":16462,"period_min":96.106532938484,"perigee_km":569.56054471103,"apogee_km":574.50628597859,"semimajor_km":6950.1704153448,"source":"CELESTRAK","updated_at":"2026-05-25T13:38:18.155931Z"}}